Date,TemperatureHighF,TemperatureAvgF,TemperatureLowF,DewpointHighF,DewpointAvgF,DewpointLowF,HumidityHigh,HumidityAvg,HumidityLow,PressureMaxIn,PressureMinIn,WindSpeedMaxMPH,WindSpeedAvgMPH,GustSpeedMaxMPH,PrecipitationSumIn
2013-8-1,80,72,64,71,68,64,100,88,64,29.98,29.90,15,2,15,0.01
2013-8-2,83,70,59,69,64,59,100,83,55,30.04,29.96,11,1,11,0.00
2013-8-3,81,70,62,69,65,61,100,85,57,30.04,29.98,12,1,12,0.00
2013-8-4,78,70,63,69,65,60,100,84,58,30.06,29.98,16,2,16,0.06
2013-8-5,86,71,59,71,64,59,99,81,52,30.08,29.95,12,1,12,0.00
2013-8-6,87,72,64,71,66,62,98,81,52,30.02,29.94,7,1,7,0.02
2013-8-7,78,71,67,72,68,66,97,91,77,30.03,29.98,9,0,9,0.13
2013-8-8,85,72,65,75,69,65,100,92,67,30.05,29.98,8,0,8,0.75
2013-8-9,85,72,66,75,70,66,100,94,64,30.08,30.00,15,0,15,0.63
2013-8-10,86,72,67,76,70,67,100,94,66,30.13,30.04,18,1,18,0.58
2013-8-11,84,72,65,75,69,65,100,92,67,30.16,30.05,16,1,16,0.48
2013-8-12,83,72,67,75,70,67,100,94,69,30.11,29.97,7,0,7,0.24
2013-8-13,81,72,67,74,69,66,100,91,70,29.98,29.84,17,1,17,0.09
2013-8-14,73,67,60,67,61,58,99,83,60,30.07,29.89,13,2,13,0.01
2013-8-15,75,64,54,63,58,54,100,83,61,30.14,30.06,11,1,12,0.00
2013-8-16,78,66,56,64,59,55,97,80,56,30.14,30.06,7,0,7,0.00
2013-8-17,73,64,57,64,60,56,98,89,71,30.18,30.10,11,1,11,0.13
2013-8-18,78,67,61,69,64,61,100,92,72,30.22,30.12,9,0,9,0.18
2013-8-19,77,68,64,70,66,64,100,93,72,30.19,30.08,6,0,6,0.67
2013-8-20,83,70,64,72,67,64,100,89,66,30.20,30.09,7,0,7,0.01
2013-8-21,78,70,64,71,67,63,100,92,76,30.23,30.11,8,0,8,0.01
2013-8-22,82,72,65,70,67,64,100,85,59,30.18,30.03,14,1,14,0.00
2013-8-23,81,70,62,71,66,62,100,89,65,30.09,29.99,12,1,12,0.00
2013-8-24,81,70,58,68,63,57,100,82,48,30.29,30.09,11,1,11,0.00
2013-8-25,81,65,52,64,58,51,100,80,48,30.40,30.27,7,0,7,0.01
2013-8-26,79,65,53,66,60,53,100,86,60,30.35,30.16,10,1,10,0.00
2013-8-27,80,68,57,70,64,57,100,90,70,30.19,30.04,13,1,13,0.01
2013-8-28,83,72,64,72,68,63,100,87,62,30.08,29.96,12,1,12,0.00
2013-8-29,85,76,69,74,70,68,98,82,64,29.99,29.90,17,2,17,0.14
2013-8-30,86,74,66,73,70,66,100,87,62,30.03,29.91,9,1,9,0.01
2013-8-31,84,73,66,75,69,66,100,89,69,29.97,29.85,12,1,12,0.01